User: anonymous   Login
Location: Unspecified
(0.0000°N, 0.0000°E)
Time: 21:24:11
(UTC+00:00)
Language:

STARLINK-6361 - Orbit

View from above orbital plane
View from above orbital plane
View from above satellite
View from above satellite

Ground track
Ground track

The orbit is defined by the following mean orbital elements,

1 57379U          26145.53594132 +.00000000 +00000-0 +26164-4 0 00007
2 57379  43.0023 164.1312 0001185 277.0438  83.0279 15.27578037    03
Epoch (UTC): 25 May 2026 12:51:45
Eccentricity: 0.0001185
inclination: 43.0023°
perigee height: 482 km
apogee height: 484 km
right ascension of ascending node: 164.1312°
argument of perigee: 277.0438°
revolutions per day: 15.27578037
mean anomaly at epoch: 83.0279°

The dashed part of the orbit path shows where the satellite is in the earth's shadow,  

DLR